Regional Weather Roundup
Issued by NWS Cleveland, OH

Home | Current Version | Previous Version | Graphics & Text | Print | Product List | Glossary On
Versions: 1 2 3 4 5 6 7 8 9 10 11 12 13 14 15 16 17 18 19 20 21 22 23 24 25 26 27 28 29 30 31 32 33 34 35 36 37 38 39 40 41 42 43 44 45 46 47 48 49 50
000
ASUS41 KCLE 191900
RWRCLE
OHIO REGIONAL WEATHER ROUNDUP
NATIONAL WEATHER SERVICE WILMINGTON, OH
200 PM EST FRI JAN 19 2018

NOTE: "FAIR" INDICATES FEW OR NO CLOUDS BELOW 12,000 FEET WITH NO
SIGNIFICANT WEATHER AND/OR OBSTRUCTIONS TO VISIBILITY.

OHZ001>008-015>018-024>027-034-035-043-044-192000-
   NORTHWEST OHIO

CITY           SKY/WX    TMP DP  RH WIND       PRES   REMARKS
DEFIANCE       FAIR      33  19  56 SW18      29.93F WCI  22
FINDLAY        FAIR      34  19  54 SW21G28   29.95F WCI  22
TOLEDO EXPRESS FAIR      33  21  61 SW16G24   29.91F WCI  23
TOLEDO EXEC    FAIR      33  21  61 SW20G28   29.93F WCI  21
LIMA           FAIR      32  19  58 SW18G25   29.96F WCI  20
$$

OHZ009>014-019>023-028>033-038-089-192000-
   NORTHEAST OHIO

CITY           SKY/WX    TMP DP  RH WIND       PRES   REMARKS
CLE-HOPKINS    FAIR      36  18  48 S16       29.97F
CLE-LAKEFRONT  FAIR      36  18  48 S21       29.94F
CUY CO. ARPT   MOSUNNY   36  18  48 SW12G21   29.94F
LORAIN-ELYRIA  FAIR      34  15  46 SW20G28   29.95F WCI  23
ASHTABULA      FAIR      33  16  49 SW17G24   29.94F WCI  22
AKRON-CANTON   FAIR      32  16  51 SW17      29.99F WCI  21
WOOSTER        NOT AVBL
MANSFIELD      FAIR      35  19  52 S17       29.96F WCI  25
YOUNGSTOWN     FAIR      34  16  47 SW13G25   29.96F WCI  25
$$

OHZ042-051>053-060>062-070>072-077>081-192000-
  SOUTHWEST OHIO

CITY           SKY/WX    TMP DP  RH WIND       PRES   REMARKS
CINC-COVINGTON FAIR      36  19  50 S14G21    30.08F
CINC-LUNKEN    FAIR      38  20  48 SW13      30.11F
HAMILTON       FAIR      40  19  43 SW8       30.09F
DAYTON         NOT AVBL
WRIGHT-PAT AFB FAIR      35   9  33 S15       30.04F WCI  26
DAYTON GENERAL FAIR      35  17  47 S13       30.05F WCI  26
WILMINGTON     FAIR      33  20  58 S12       30.06F WCI  24
$$

OHZ036-037-039>041-045>050-054>059-063>069-073>076-082>088-192000-
  CENTRAL AND SOUTHEAST OHIO

CITY           SKY/WX    TMP DP  RH WIND       PRES   REMARKS
COLUMBUS       FAIR      33  18  53 S15       30.07F WCI  23
OSU AIRPORT    FAIR      32  19  58 S17       30.04F WCI  21
BOLTON FIELD   SUNNY     32  18  55 SW12      30.07F WCI  23
RICKENBACK AFB NOT AVBL
NEWARK         FAIR      33  17  51 SW10      30.06F WCI  25
MARION         FAIR      30  17  58 S18       30.00F WCI  18
LANCASTER      FAIR      35  18  49 SW13      30.08F WCI  26
ZANESVILLE     FAIR      36  17  46 SW12      30.07F
NEW PHILLY     FAIR      36  16  44 S7        30.04F
$$




USA.gov is the U.S. government's official web portal to all federal, state and local government web resources and services.